Regional Weather Roundup
Issued by NWS Cleveland, OH

Home | Current Version | Previous Version | Graphics & Text | Print | Product List | Glossary On
Versions: 1 2 3 4 5 6 7 8 9 10 11 12 13 14 15 16 17 18 19 20 21 22 23 24 25 26 27 28 29 30 31 32 33 34 35 36 37 38 39 40 41 42 43 44 45 46 47 48 49 50
000
ASUS41 KCLE 231202
RWRCLE
OHIO REGIONAL WEATHER ROUNDUP
NATIONAL WEATHER SERVICE CLEVELAND, OH
800 AM EDT WED JUL 23 2014

NOTE: "FAIR" INDICATES FEW OR NO CLOUDS BELOW 12,000 FEET WITH NO
SIGNIFICANT WEATHER AND/OR OBSTRUCTIONS TO VISIBILITY.

OHZ001>008-015>018-024>027-034-035-043-044-231300-
   NORTHWEST OHIO

CITY           SKY/WX    TMP DP  RH WIND       PRES   REMARKS
DEFIANCE       CLOUDY    71  65  81 CALM      29.99F
FINDLAY        CLOUDY    71  68  90 S6        29.98F
TOLEDO EXPRESS CLOUDY    70  66  87 NW7       29.98S
TOLEDO EXEC    CLOUDY    73  66  78 W12       29.98F
LIMA           CLOUDY    71  67  87 SE10      29.99F
$$

OHZ009>014-019>023-028>033-038-089-231300-
   NORTHEAST OHIO

CITY           SKY/WX    TMP DP  RH WIND       PRES   REMARKS
CLE-HOPKINS    LGT RAIN  71  68  90 SW10      29.98R FOG
CLE-LAKEFRONT  LGT RAIN  73  70  90 S9        29.93R
CUY CO. ARPT   LGT RAIN  77  72  83 SW12      29.96R
LORAIN-ELYRIA  LGT RAIN  73  68  84 SW10      29.98R
ASHTABULA      CLOUDY    72  68  87 NW5       29.95R FOG
AKRON-CANTON   LGT RAIN  74  67  78 W9        30.00R
WOOSTER        CLOUDY    71  66  84 W8        30.01R
MANSFIELD      LGT RAIN  70  69  97 SW6       30.04R FOG
YOUNGSTOWN     CLOUDY    73  68  84 S7        29.96F
$$

OHZ042-051>053-060>062-070>072-077>081-231300-
  SOUTHWEST OHIO

CITY           SKY/WX    TMP DP  RH WIND       PRES   REMARKS
CINC-COVINGTON LGT RAIN  74  67  78 E15G23    30.09R
CINC-LUNKEN    LGT RAIN  74  66  76 NE15G25   30.09R
HAMILTON       HVY RAIN  70  67  90 SE6       30.08F FOG
DAYTON         CLOUDY    69  66  90 S12       30.06S
WRIGHT-PAT AFB NOT AVBL
DAYTON GENERAL LGT RAIN  68  66  93 SE9       30.08F FOG
WILMINGTON     LGT RAIN  71  65  81 N8        30.10R
$$

OHZ036-037-039>041-045>050-054>059-063>069-073>076-082>088-231300-
  CENTRAL AND SOUTHEAST OHIO

CITY           SKY/WX    TMP DP  RH WIND       PRES   REMARKS
COLUMBUS       CLOUDY    76  66  71 W7        30.05R
OSU AIRPORT    LGT RAIN  70  67  90 W7        30.07R FOG
BOLTON FIELD   DRIZZLE   72  64  78 W8        30.09R
RICKENBACK AFB CLOUDY    75  65  72 W9        30.06R
NEWARK         PTSUNNY   73  68  84 W6        30.05R
MARION         NOT AVBL
LANCASTER      PTSUNNY   74  68  81 W3        30.06R
ZANESVILLE     PTSUNNY   73  68  84 W6        30.02S
NEW PHILLY     CLOUDY    74  69  85 VRB5      30.00S
$$


USA.gov is the U.S. government's official web portal to all federal, state and local government web resources and services.